Location: Treviso
(45.6669°N, 12.2430°E)
Time: 17:42:48
(UTC+02:00)

ISS - Pass Details

Date: 20 May 2018
Orbit: 402 x 407 km, 51.6° (Epoch: 27 May)

Event Time Altitude Azimuth Distance (km) Brightness Sun altitude
Exits shadow 01:38:39 15° 303° (WNW) 1,202 -1.2 -24.0°
Maximum altitude 01:40:45 27° 357° (N) 804 -1.7 -24.0°
Drops below altitude 10° 01:43:38 10° 58° (ENE) 1,459 -0.5 -23.9°
Sets 01:45:54 0° 71° (ENE) 2,319 0.4 -23.8°
